Regional Weather Roundup
Issued by NWS

Home | Current Version | Previous Version | Graphics & Text | Print | Product List | Glossary On
Versions: 1 2 3 4 5 6 7 8 9 10 11 12 13 14 15 16 17 18 19 20 21 22 23 24 25 26 27 28 29 30 31 32 33 34 35 36 37 38 39 40 41 42 43 44 45 46 47 48 49 50
000
ASUS43 KTOP 030008
RWRKS

WEATHER ROUNDUP FOR KANSAS
NATIONAL WEATHER SERVICE GOODLAND KS
700 PM CDT THU JUL 02 2015

NOTE:  "FAIR" INDICATES FEW OR NO CLOUDS BELOW 12,000 FEET WITH NO
SIGNIFICANT WEATHER AND/OR OBSTRUCTIONS TO VISIBILITY.

KSZ001>006-013>018-027>032-041>047-030100-
NORTHWEST KANSAS

CITY           SKY/WX    TMP DP  RH WIND       PRES   REMARKS
GOODLAND       SUNNY     84  55  36 N12       30.04F
6HR MIN TEMP:  77; 6HR MAX TEMP:  86;

HAYS           SUNNY     84  61  45 N3        29.92F
HILL CITY      LGT RAIN  90  57  32 N10       29.93F
6HR MIN TEMP:  78; 6HR MAX TEMP:  91; 6HR PCP: TRACE;

RUSSELL        SUNNY     85  63  47 W7        29.90F
6HR MIN TEMP:  72; 6HR MAX TEMP:  85; 6HR PCP:  0.05;

$$

KSZ061>065-074>080-084>089-030100-
SOUTHWEST KANSAS

CITY           SKY/WX    TMP DP  RH WIND       PRES   REMARKS
DODGE CITY     MOSUNNY   82  62  50 NE8       29.96F
6HR MIN TEMP:  73; 6HR MAX TEMP:  83; 6HR PCP: TRACE;

ELKHART          N/A     84  60  44 NE14        N/A
GARDEN CITY    SUNNY     81  66  60 E5        29.97F
6HR MIN TEMP:  70; 6HR MAX TEMP:  81; 6HR PCP:  0.38;

GREAT BEND     SUNNY     81  66  61 NW7       29.91F
LIBERAL        PTSUNNY   73  63  68 E16         N/A
PRATT          SUNNY     79  63  57 N5        29.93F
$$

KSZ066>073-081>083-090>101-030100-
SOUTHEAST KANSAS

CITY           SKY/WX    TMP DP  RH WIND       PRES   REMARKS
CHANUTE        CLOUDY    78  71  79 CALM      29.88F
6HR MIN TEMP:  77; 6HR MAX TEMP:  81; 6HR PCP:  0.02;

COFFEYVILLE    PTSUNNY   81  71  71 N7        29.87F
6HR MIN TEMP:  80; 6HR MAX TEMP:  88; 6HR PCP: TRACE;

HUTCHINSON     SUNNY     80  67  64 W5        29.88F
6HR MIN TEMP:  72; 6HR MAX TEMP:  80; 6HR PCP:  0.06;

MEDICINE LODGE   N/A     83  66  56 NE8       29.89F
NEWTON         MOSUNNY   75  64  69 W5        29.90F
PARSONS        CLOUDY    78  72  81 W3        29.89F
6HR MIN TEMP:  78; 6HR MAX TEMP:  83; 6HR PCP: TRACE;

WICHITA INTL   PTSUNNY   78  69  73 CALM      29.86F
6HR MIN TEMP:  75; 6HR MAX TEMP:  79; 6HR PCP:  0.16;

WICHITA JABRA  PTSUNNY   77  68  73 W3        29.87F
6HR MIN TEMP:  73; 6HR MAX TEMP:  78; 6HR PCP:  0.16;

WICHITA MCCONL CLOUDY    78  68  72 W5        29.88F
WINFIELD       CLOUDY    79  71  76 VRB3      29.86F
6HR MIN TEMP:  78; 6HR MAX TEMP:  82; 6HR PCP: TRACE;

$$

KSZ007>012-019>026-033>040-048>060-102>105-030100-
NORTHEAST KANSAS

CITY           SKY/WX    TMP DP  RH WIND       PRES   REMARKS
CONCORDIA      MOSUNNY   80  67  64 VRB5G21   29.86F
6HR MIN TEMP:  75; 6HR MAX TEMP:  84; 6HR PCP: TRACE;

EMPORIA        PTSUNNY   79  67  66 CALM      29.88F
6HR MIN TEMP:  77; 6HR MAX TEMP:  80;

LAWRENCE       CLOUDY    73  68  84 E7        29.90F
6HR MIN TEMP:  72; 6HR MAX TEMP:  74; 6HR PCP:  0.02;

MANHATTAN      LGT RAIN  70  68  93 S3        29.89F
6HR MIN TEMP:  68; 6HR MAX TEMP:  85; 6HR PCP:  0.21;

MARYSVILLE     PTSUNNY   72  68  88 E9        29.90S
OLATHE IND     PTSUNNY   73  67  81 E6        29.92S
6HR MIN TEMP:  72; 6HR MAX TEMP:  76;

OLATHE EXE     CLOUDY    71  67  87 NE9       29.90F
6HR MIN TEMP:  71; 6HR MAX TEMP:  73;

SALINA         SUNNY     84  67  56 W10       29.88F
6HR MIN TEMP:  76; 6HR MAX TEMP:  85; 6HR PCP:  0.01;

TOPEKA BILLARD CLOUDY    74  69  85 SE6       29.89F
6HR MIN TEMP:  73; 6HR MAX TEMP:  77; 6HR PCP: TRACE;

TOPEKA FORBES  PTSUNNY   76  69  79 E8        29.89F
6HR MIN TEMP:  75; 6HR MAX TEMP:  79; 6HR PCP: TRACE;

$$



USA.gov is the U.S. government's official web portal to all federal, state and local government web resources and services.